GEFSSE_con_cape1000_006.txt.gz
Probability
0 100 100 100 100 100 100 87 55 84 100 100 100 100 100 100 100 100 100 100 100 100 100 100 100 100 100 100 100 100 100 100 100 100 100 100 100 100 100 100 97 90 100
0 100 100 100 100 100 100 94 77 100 100 97 100 100 100 100 100 100 100 100 100 100 100 100 100 100 87 97 97 100 100 100 100 100 100 74 94 100 100 100 97 84 100
16 100 100 100 100 100 100 100 94 100 100 100 100 100 100 100 100 100 100 100 100 100 100 100 100 90 61 26 55 94 97 97 100 100 74 26 94 100 100 100 100 100 97
48 100 100 100 100 100 100 100 100 100 100 100 100 100 100 100 100 100 100 100 100 100 100 100 100 90 77 68 65 74 77 87 97 100 100 97 94 100 100 100 100 100 87
65 100 100 100 100 100 100 100 100 100 100 100 100 100 100 100 100 100 100 100 100 94 94 97 94 97 100 100 100 100 100 100 100 100 100 94 58 100 100 100 100 100 87
74 100 100 100 100 100 100 100 100 100 100 100 100 100 100 100 100 100 100 100 100 97 94 100 100 94 94 100 100 100 100 100 100 100 87 35 3 100 100 100 100 100 97
65 100 100 100 100 100 100 100 100 100 100 100 100 100 100 100 100 100 100 100 100 100 100 100 100 100 100 100 100 100 100 100 100 100 100 32 3 100 100 100 100 100 100
55 100 100 100 100 100 100 100 100 100 100 100 100 100 100 100 100 100 100 97 97 100 100 100 100 100 97 100 100 100 100 100 100 100 100 55 13 100 100 100 100 100 100
48 100 100 100 100 100 100 100 100 100 100 100 100 100 100 100 100 100 100 100 97 100 100 100 100 100 100 100 100 100 100 100 100 100 97 35 52 100 100 100 100 100 100
71 100 100 100 100 100 100 100 100 100 100 100 100 100 100 100 100 100 100 100 100 100 100 100 100 100 100 100 100 100 100 100 100 100 90 26 81 100 100 100 100 100 100
58 61 87 84 90 100 100 100 100 100 100 100 100 100 100 100 100 100 100 100 100 100 100 100 100 100 100 100 100 100 100 100 100 71 42 65 100 100 100 100 100 100 100
32 13 16 35 39 58 100 100 100 100 100 100 100 100 97 68 61 97 100 100 100 100 100 100 100 100 100 100 100 100 100 100 84 16 16 100 100 100 100 100 100 100 100
52 6 6 19 13 19 32 84 100 100 100 100 100 81 26 16 13 58 32 97 100 100 100 100 100 100 100 100 87 58 52 42 45 16 13 100 100 100 100 100 100 100 100
71 35 32 16 13 6 3 23 74 74 100 100 97 81 39 29 35 29 16 13 77 97 100 100 100 100 97 94 52 23 13 13 13 6 6 100 100 100 100 100 100 100 100
87 65 23 29 13 0 0 10 13 23 52 77 65 65 55 52 74 71 68 23 39 65 81 87 87 90 97 94 58 23 13 0 0 3 3 97 100 100 100 100 100 100 100
97 94 19 19 16 3 0 6 23 23 19 32 42 39 42 52 71 74 77 35 13 26 48 65 71 77 81 84 55 29 19 0 3 19 13 55 100 100 100 100 100 100 100
100 97 35 16 6 3 13 42 71 81 65 42 35 29 32 55 65 81 71 55 26 10 3 13 39 35 19 13 3 0 0 0 32 32 23 26 48 100 100 100 100 100 100
100 100 97 97 81 68 74 94 100 100 100 100 87 71 74 81 90 94 94 68 32 13 6 16 6 6 3 0 0 0 0 0 0 13 19 13 29 39 100 100 100 100 100
100 100 100 100 100 97 97 97 94 90 94 100 100 100 94 97 100 100 100 94 35 19 13 10 0 0 0 0 0 0 0 0 0 0 0 6 13 29 32 61 100 100 100
100 100 100 100 94 84 61 16 6 0 0 16 58 87 94 100 100 97 100 94 71 48 39 10 0 0 0 0 0 0 0 0 0 0 0 0 0 0 6 6 35 90 100
87 90 97 90 68 35 6 3 0 0 0 0 0 10 65 84 100 90 90 90 87 87 77 32 0 0 0 0 0 0 0 0 0 0 0 0 0 0 0 3 3 0 6
71 77 77 71 61 45 19 3 0 0 0 0 0 10 26 39 77 87 68 84 74 71 58 26 6 0 0 0 0 0 0 0 0 0 0 0 0 0 0 0 0 0 0
61 52 45 35 45 48 52 29 3 3 0 0 0 3 3 16 39 68 77 29 23 13 19 10 6 0 0 0 0 0 0 0 0 0 0 0 0 0 0 0 0 0 0
10 10 6 10 16 39 26 19 0 0 0 0 0 0 0 0 6 32 45 32 19 10 0 0 0 0 0 0 0 0 0 0 0 0 0 0 0 0 0 0 0 0 0
0 0 0 0 6 13 10 0 0 0 0 0 0 0 0 0 0 0 3 0 0 0 6 3 0 0 0 0 0 0 0 0 0 0 0 0 0 0 0 0 0 0 0
0 0 0 0 0 0 0 0 0 0 0 0 0 0 0 0 0 0 0 0 0 0 0 3 0 0 0 0 0 0 0 0 0 0 0 0 0 0 0 0 0 0 0

GEFSSE_con_cape1000_012.txt.gz
Probability
0 97 100 94 87 58 71 87 94 97 100 100 100 100 100 100 100 100 100 97 94 87 84 100 100 100 100 100 100 100 100 100 100 100 100 100 100 100 100 100 94 71 100
0 97 100 94 90 77 77 94 94 97 100 100 100 100 100 100 100 100 100 100 97 68 39 61 81 94 97 100 100 100 100 100 100 100 90 100 100 100 100 84 90 97 100
10 97 100 97 97 87 84 94 97 100 100 100 100 100 100 100 100 100 100 100 97 94 55 16 13 42 77 90 100 100 100 100 100 94 81 90 100 100 100 97 77 100 100
55 94 94 97 97 97 84 94 100 100 100 100 100 100 100 100 100 100 100 100 97 100 97 90 55 6 10 42 74 87 94 100 97 74 55 74 100 100 100 100 97 100 100
65 97 84 100 97 97 90 97 100 100 100 100 100 100 100 100 100 100 100 100 100 97 100 100 94 87 77 61 68 77 84 94 100 100 100 100 84 100 100 100 100 94 97
77 97 97 100 97 100 97 97 100 100 100 100 100 100 100 100 100 100 100 100 100 94 97 97 97 97 100 100 100 100 100 100 97 100 100 94 74 100 100 100 100 100 94
74 97 97 100 100 100 100 100 100 100 100 100 100 100 100 100 100 100 100 100 100 100 100 100 100 100 100 100 100 100 100 100 100 100 97 87 81 90 100 100 100 100 100
97 100 97 100 100 100 100 100 100 100 100 100 100 100 100 100 100 100 100 100 100 100 100 100 100 100 100 100 100 100 100 100 100 100 100 97 90 100 100 100 100 100 100
100 100 100 100 97 100 100 100 100 100 100 100 100 100 100 100 100 100 100 100 100 100 100 100 100 100 100 100 100 100 100 100 100 100 100 100 100 100 100 100 100 100 100
100 100 100 100 97 100 100 100 100 100 100 100 100 100 100 100 100 100 100 100 100 100 100 100 100 100 100 100 100 100 100 100 100 100 100 100 100 100 100 100 100 100 100
100 100 100 100 100 100 100 100 100 100 100 100 100 100 100 100 100 100 100 100 100 100 100 100 100 100 100 100 100 100 100 100 100 100 100 100 100 100 100 100 100 100 100
97 100 100 100 100 100 100 100 100 100 100 100 100 100 100 100 100 100 100 100 100 100 100 100 100 100 100 100 100 100 100 100 100 100 100 100 100 100 100 100 100 100 100
29 97 97 100 97 100 100 100 100 100 100 100 100 100 100 100 90 100 100 100 100 100 100 100 100 100 100 100 100 100 100 100 100 100 100 100 100 100 100 100 100 100 100
39 81 87 94 84 87 97 68 90 100 100 100 100 100 100 90 52 42 61 68 61 81 97 100 100 100 100 100 100 100 100 97 97 74 77 100 100 100 100 100 100 100 100
58 39 35 68 77 77 68 55 45 84 100 100 100 100 97 97 84 52 39 55 68 65 71 87 90 100 100 100 100 100 100 100 90 61 65 100 100 100 100 100 100 100 100
90 74 29 26 45 45 58 55 39 42 94 90 84 90 94 100 100 87 48 35 71 77 81 77 74 97 97 97 100 100 100 100 100 97 87 84 100 100 100 100 100 100 100
100 90 71 42 29 16 13 6 6 23 39 42 61 68 77 90 87 90 68 48 71 74 74 84 94 87 81 84 87 90 94 97 100 100 100 94 90 100 100 100 100 100 100
100 100 87 100 81 32 13 10 10 26 42 58 65 55 65 61 61 68 61 74 77 77 74 65 68 65 77 74 71 74 87 84 81 81 84 84 81 65 94 100 100 100 100
100 100 100 100 97 68 16 13 16 39 39 35 42 42 68 84 94 87 87 94 90 90 81 65 55 45 45 55 45 55 39 13 16 10 13 16 19 35 48 48 97 100 100
100 100 100 100 90 84 45 13 3 3 0 0 0 3 6 10 52 55 74 90 97 94 94 84 74 45 13 23 3 3 3 3 3 3 0 0 3 3 3 13 45 58 94
90 84 84 87 77 52 29 10 0 0 0 0 0 0 0 0 6 10 10 26 58 71 87 90 77 61 35 6 0 0 0 0 0 0 0 0 0 0 0 0 10 16 29
71 74 68 61 42 19 3 0 0 0 0 0 0 0 0 0 0 3 3 3 10 23 48 68 65 45 23 0 0 0 0 0 0 0 0 0 0 0 0 0 0 0 0
65 58 52 48 29 10 0 0 0 0 0 0 0 0 0 0 0 0 0 0 0 0 10 16 26 32 16 6 3 0 0 0 0 0 0 0 0 0 0 0 0 0 0
39 32 32 26 23 3 0 0 6 3 0 0 0 0 0 0 0 0 0 0 0 0 0 3 0 19 13 3 0 0 0 0 0 0 0 0 0 0 0 0 0 0 0
16 13 10 6 6 0 0 0 3 0 0 0 0 0 0 0 0 0 0 0 0 0 0 0 0 0 0 3 0 0 0 0 0 0 0 0 0 0 0 0 0 0 0
3 3 0 0 0 0 0 0 0 0 0 0 0 0 0 0 0 0 0 0 0 0 0 0 0 0 0 3 0 0 0 0 0 0 0 0 0 0 0 0 0 0 0

GEFSSE_con_cape1000_018.txt.gz
Probability
6 71 84 100 100 97 100 100 100 100 100 100 100 100 100 100 100 100 94 94 94 100 100 100 100 100 100 100 100 100 100 100 100 100 100 100 94 94 84 65 61 87 87
26 87 90 97 100 100 100 100 100 100 100 100 100 100 100 100 100 97 74 77 74 81 94 94 94 100 100 100 100 100 100 100 100 90 90 94 87 84 71 35 39 97 97
71 90 81 100 100 100 100 100 100 100 100 100 100 100 100 100 100 90 77 55 23 26 39 55 61 65 74 90 100 100 100 100 100 84 87 26 35 77 42 42 55 90 90
55 84 65 100 100 100 100 100 100 100 100 100 100 100 100 100 97 97 90 77 45 3 0 3 6 13 42 58 74 97 100 100 90 74 58 3 10 97 90 26 61 87 87
71 90 94 100 100 100 100 100 100 100 100 100 100 100 100 100 100 97 97 97 94 87 65 19 3 3 3 13 29 48 58 65 52 35 3 3 32 100 100 90 87 97 97
61 77 94 100 100 100 100 100 100 100 100 100 100 100 100 100 97 97 97 97 94 94 100 97 87 84 74 48 35 45 52 55 26 6 6 10 23 100 100 100 97 100 100
42 45 90 100 100 100 100 100 100 100 100 100 100 100 100 100 97 97 100 100 97 97 97 97 97 90 94 97 100 97 90 81 55 6 23 35 65 100 100 100 100 100 100
26 32 100 100 100 100 100 100 100 100 100 100 100 100 100 100 100 97 97 100 100 100 100 100 100 100 100 100 100 100 100 100 84 55 68 65 100 100 100 100 100 100 100
10 52 100 97 100 100 100 100 100 100 100 100 100 100 100 100 100 100 100 100 100 100 100 100 100 100 100 100 100 100 100 100 68 45 45 97 100 100 100 100 100 100 100
26 45 100 94 97 100 100 100 100 100 100 100 100 100 100 100 100 100 100 100 100 100 100 100 100 100 100 100 100 100 100 97 19 0 52 94 100 100 100 100 100 100 100
74 74 90 97 100 100 100 100 100 100 100 100 100 100 100 100 100 100 100 100 100 100 100 100 100 100 100 100 100 100 100 71 45 61 94 97 100 100 100 100 100 100 100
100 97 97 97 100 100 94 100 100 100 100 100 100 100 100 100 100 100 97 100 100 100 100 100 100 100 100 100 100 100 100 90 97 97 100 100 100 100 100 100 100 100 100
100 97 97 100 100 100 100 100 100 100 100 100 100 100 100 100 100 100 100 100 100 100 100 100 100 100 100 100 100 100 100 97 100 100 100 100 100 100 100 100 100 100 100
100 100 97 100 100 100 100 100 100 100 100 100 100 100 100 100 100 100 100 100 100 100 100 100 100 100 100 100 100 100 100 100 100 100 100 100 100 100 100 100 100 100 100
100 100 100 100 100 100 100 100 100 100 100 100 100 100 100 100 100 100 100 100 100 100 100 100 100 100 100 100 100 97 100 100 100 100 100 100 100 100 100 100 100 100 100
100 100 100 100 100 100 100 100 100 100 100 100 100 100 100 100 100 100 100 100 100 100 97 100 100 100 100 100 97 90 97 97 100 100 100 100 100 100 100 100 100 100 100
100 100 100 100 100 100 100 100 100 100 100 100 100 100 100 100 100 100 100 100 100 97 97 97 100 94 97 94 97 100 94 94 90 97 97 97 100 100 100 100 100 100 100
100 100 100 100 100 100 100 100 100 100 100 100 100 100 100 100 100 100 100 100 100 100 100 97 97 97 90 94 94 97 97 97 100 97 90 90 94 94 100 100 100 100 100
100 100 100 100 100 100 100 100 97 100 97 97 90 81 77 74 61 68 90 97 90 90 94 94 90 97 97 94 94 97 97 97 97 100 100 87 90 97 97 97 100 100 100
100 100 100 100 97 97 94 90 87 84 77 65 55 52 39 19 16 23 23 32 48 52 68 81 90 97 97 97 94 94 100 100 100 100 100 97 97 94 97 97 97 100 100
94 97 97 94 97 97 68 61 55 19 23 10 16 19 13 6 6 23 3 16 39 29 45 52 55 55 65 77 74 81 81 77 90 100 100 97 97 90 94 94 97 90 84
74 84 94 100 90 87 68 74 65 52 3 0 13 32 26 19 10 0 6 0 3 23 32 32 55 39 16 48 68 42 26 29 74 77 100 100 97 94 77 71 84 100 84
74 81 71 84 94 90 90 58 71 97 97 29 29 35 23 16 6 3 10 3 10 6 3 13 39 35 23 26 35 55 16 3 13 35 77 94 97 94 77 55 52 71 87
68 77 90 94 94 90 90 74 58 71 6 3 61 19 23 19 0 0 0 0 3 3 3 3 0 19 35 19 29 68 61 39 16 6 32 71 90 94 84 52 35 42 61
55 74 77 90 94 94 94 87 94 71 42 13 35 39 42 10 0 0 0 0 0 3 3 3 13 16 16 19 26 29 52 87 77 23 3 26 52 61 87 77 55 42 58
71 68 65 77 90 97 100 81 97 94 87 71 68 39 26 10 3 0 0 3 6 6 3 6 16 19 32 29 29 26 39 52 42 42 19 32 35 48 68 65 55 61 68

GEFSSE_con_cape1000_024.txt.gz
Probability
16 19 100 100 100 100 100 100 100 100 100 94 94 97 97 97 97 94 97 100 100 100 100 100 100 100 100 100 100 100 100 100 100 97 97 87 90 87 84 81 97 65 97
26 32 100 100 100 100 100 100 100 100 97 94 97 97 100 100 87 84 84 90 100 100 100 100 97 97 100 100 100 100 100 97 90 68 68 68 68 65 55 77 100 81 94
32 29 100 100 100 100 100 100 100 100 97 97 97 100 100 94 81 61 52 55 71 74 74 74 65 74 81 87 97 100 94 68 55 61 87 74 65 58 48 77 100 94 74
29 23 65 100 100 100 100 100 100 100 97 100 100 100 100 97 58 29 10 13 10 13 19 26 16 26 29 42 65 74 84 71 65 71 94 81 16 65 55 58 74 71 68
16 26 100 100 100 100 100 100 100 100 100 100 100 100 97 90 77 45 23 6 3 0 0 0 0 3 6 10 23 32 52 55 65 61 81 81 71 100 90 58 65 68 68
39 58 97 100 100 100 100 100 100 100 100 100 100 100 100 94 87 68 55 48 35 19 26 10 6 3 3 3 6 13 13 26 29 10 10 58 74 100 100 97 74 84 84
58 71 84 100 100 100 100 100 100 100 100 100 100 100 100 100 94 90 87 84 77 77 77 77 74 77 77 65 58 65 58 52 65 16 48 55 94 100 100 100 100 100 100
71 65 81 100 100 100 100 100 100 100 100 100 100 100 100 100 100 97 94 97 97 97 97 97 97 97 97 100 100 100 100 100 74 48 84 97 100 100 100 100 100 100 100
74 77 74 94 100 100 100 100 100 100 100 100 100 100 100 100 100 100 100 100 100 100 100 100 100 100 100 100 100 100 100 100 100 65 65 100 100 100 100 100 100 100 100
81 87 81 74 94 100 100 100 100 100 100 100 100 100 100 100 100 100 100 100 100 100 100 100 100 100 100 100 100 100 100 100 100 39 3 77 100 100 100 100 100 100 100
87 100 81 81 97 97 94 100 100 100 100 100 100 100 100 100 100 100 100 100 100 100 100 100 100 100 100 100 100 100 100 100 90 45 26 77 100 100 100 100 100 100 100
97 100 100 100 100 100 100 100 100 100 100 100 100 100 100 100 100 100 100 100 100 100 100 100 100 100 100 100 100 100 100 100 61 39 61 100 100 100 100 100 100 100 100
100 97 97 100 100 100 100 100 100 100 100 100 100 100 100 100 100 100 100 100 100 100 100 100 100 100 100 100 100 100 100 94 94 81 90 100 100 100 100 100 100 100 100
100 100 97 100 100 100 100 100 100 100 100 100 100 100 100 100 100 100 100 100 100 100 100 100 100 100 100 100 100 97 100 100 97 97 100 100 97 100 100 100 100 100 100
100 100 100 100 100 100 100 100 100 100 100 100 100 100 100 100 100 100 100 100 100 100 100 100 100 100 100 97 97 97 94 97 94 94 94 97 100 100 100 100 100 100 100
100 100 100 100 100 100 100 100 100 100 100 100 100 100 100 100 100 100 100 100 97 100 100 100 100 100 94 94 97 97 97 94 94 94 87 90 94 100 100 100 100 100 100
100 100 100 100 100 100 100 100 100 100 100 100 100 100 100 100 100 100 97 97 97 97 94 97 97 94 90 90 97 97 94 90 90 90 81 84 90 90 100 100 100 100 100
100 100 100 100 100 100 100 100 100 100 100 100 100 100 100 97 97 100 100 97 97 100 97 94 97 97 94 97 97 97 90 87 87 87 87 84 87 87 94 100 100 100 100
100 100 100 100 100 100 100 100 100 100 100 97 94 97 97 90 84 87 94 97 94 97 90 81 90 90 90 90 90 94 90 87 90 84 84 81 77 90 87 90 100 100 100
97 97 97 97 100 100 100 97 97 90 90 94 81 90 68 52 68 84 77 84 68 65 74 77 87 87 94 90 77 74 84 81 84 84 87 81 87 94 84 81 94 100 100
87 94 97 97 100 100 100 100 97 100 94 87 77 84 45 16 29 61 61 71 52 55 68 55 55 48 45 65 58 58 68 61 71 74 81 77 87 90 94 94 94 100 100
81 84 87 100 100 100 100 100 100 90 61 74 74 81 58 42 55 16 81 42 42 71 45 65 81 84 39 32 42 29 19 16 68 32 74 81 81 90 94 97 97 94 97
61 77 84 97 97 100 100 100 100 100 100 100 97 97 94 68 55 48 39 42 58 55 42 77 68 58 35 39 32 32 26 10 16 35 61 68 81 90 94 90 100 100 97
32 58 84 87 94 100 100 100 97 100 97 100 100 100 94 71 61 52 45 32 55 58 58 52 48 61 42 26 29 48 26 26 13 6 6 23 68 84 97 97 94 100 100
3 19 42 68 81 87 97 97 100 100 100 100 100 100 100 87 90 77 58 48 48 61 58 52 58 65 52 39 23 26 29 23 19 3 0 13 42 77 97 100 97 94 94
0 3 10 39 55 65 81 90 100 100 100 100 100 100 100 100 90 84 71 71 55 65 58 55 68 65 68 65 42 32 23 23 23 23 13 16 13 48 84 94 97 100 94

GEFSSE_con_cape1000_030.txt.gz
Probability
10 77 100 100 100 100 100 100 94 84 90 90 94 97 100 100 100 100 100 100 100 100 100 100 100 100 100 100 100 100 100 100 100 100 100 100 100 100 100 100 100 90 100
6 81 100 100 100 100 100 100 100 90 94 97 97 100 100 100 100 100 100 100 100 100 100 100 100 100 100 100 100 100 100 100 100 100 100 90 97 100 100 100 94 97 100
6 81 100 100 100 100 100 100 100 94 97 97 100 100 94 100 97 100 100 100 100 100 100 97 97 100 100 100 97 97 90 90 97 94 74 32 87 100 100 100 97 100 100
10 74 97 100 100 100 100 100 100 97 97 97 100 100 94 90 90 94 100 100 97 97 90 94 87 84 87 90 94 94 87 68 77 87 52 42 39 100 100 100 97 97 94
16 48 100 100 100 100 100 100 100 100 100 100 100 100 97 90 84 77 81 81 77 74 74 74 68 74 74 68 65 65 55 55 68 65 26 23 3 97 100 100 100 97 94
13 48 100 100 100 100 100 100 100 100 100 100 100 100 100 97 81 74 74 71 61 32 32 32 39 39 39 42 42 42 42 39 29 10 6 3 0 94 100 100 97 90 94
13 71 100 100 100 100 100 100 100 100 100 100 100 100 100 100 97 94 90 87 77 77 65 48 45 32 26 29 26 26 29 19 6 0 0 0 0 100 100 100 100 100 100
26 71 100 100 100 100 100 100 100 100 100 100 100 100 100 100 100 100 100 100 100 97 100 94 94 97 87 87 87 87 90 74 55 13 3 0 6 100 100 100 100 100 100
16 61 100 100 100 100 100 100 100 100 100 100 100 100 100 100 100 100 100 100 100 100 100 100 100 100 100 100 100 100 100 100 97 71 55 6 55 97 100 100 100 100 100
0 45 94 97 100 100 100 100 100 100 100 100 100 100 100 100 100 100 100 100 100 100 100 100 100 100 100 100 100 100 100 100 100 97 81 26 94 97 100 100 100 100 100
3 16 61 87 90 100 100 100 100 100 100 100 100 100 100 100 100 100 100 100 100 100 100 100 100 100 100 100 100 100 100 100 100 97 81 65 100 100 100 100 100 100 100
10 0 29 65 84 90 97 100 100 100 100 100 100 100 100 97 94 100 100 100 100 100 100 100 100 100 100 100 100 100 100 100 100 97 81 90 97 100 100 100 100 100 100
32 3 6 35 58 68 61 77 100 100 100 100 100 97 97 97 97 100 100 100 100 100 100 100 100 97 97 100 97 97 100 100 97 84 71 90 94 97 97 97 97 97 100
61 29 6 16 32 39 26 65 90 94 100 100 100 97 97 97 100 100 100 100 100 100 100 100 94 94 94 94 94 94 90 90 84 68 55 90 94 97 97 97 97 94 100
58 48 29 35 42 48 55 77 81 81 87 97 94 97 100 100 100 100 97 84 94 94 94 90 87 90 87 84 90 84 84 74 74 77 65 90 87 87 90 94 94 94 97
42 35 39 48 48 52 77 84 87 94 100 100 97 97 100 100 100 97 94 77 77 74 65 52 58 61 52 61 68 58 58 45 58 65 74 74 97 84 81 87 84 90 97
26 35 45 52 61 65 84 97 97 97 97 100 100 100 100 100 100 81 71 55 48 42 29 16 16 16 13 16 26 23 29 26 32 42 42 52 61 87 84 87 87 90 100
19 26 29 42 45 61 77 94 97 97 97 100 100 100 100 100 87 65 48 26 13 10 10 6 3 3 0 0 0 0 0 10 16 26 23 42 45 55 81 90 90 94 97
6 6 16 19 35 45 71 81 90 90 90 90 87 94 94 94 90 55 23 6 3 3 0 0 0 0 0 0 0 0 0 0 0 13 23 32 35 45 48 65 90 90 94
6 6 6 10 16 23 52 68 74 84 81 81 84 84 77 74 68 35 3 0 0 0 0 0 0 0 0 0 0 0 0 0 0 0 6 13 23 45 45 48 61 81 94
3 6 6 6 6 13 26 35 45 55 48 52 55 74 65 52 32 16 3 0 0 0 0 0 0 0 0 0 0 0 0 0 0 0 0 0 6 29 39 39 45 45 61
0 3 3 3 0 6 3 6 19 19 10 19 35 42 39 16 6 3 0 0 0 0 0 0 0 0 0 0 0 0 0 0 0 0 0 0 0 6 19 29 39 42 52
0 0 0 0 0 0 0 0 3 0 0 0 3 6 6 0 0 0 0 0 0 0 0 0 0 0 0 0 0 0 0 0 0 0 0 0 0 0 0 3 16 32 39
0 0 0 0 0 0 0 0 10 10 3 0 0 0 0 0 0 0 0 0 0 0 0 0 0 0 0 0 0 0 0 0 0 0 0 0 0 0 0 3 3 16 23
0 0 0 0 0 0 0 0 6 6 3 0 0 0 0 0 0 0 0 0 0 0 0 0 0 0 0 0 0 0 0 0 0 0 0 0 0 0 0 0 0 10 19
0 0 0 0 0 0 0 0 0 0 3 0 0 0 0 0 0 0 0 0 0 0 0 0 0 0 0 0 0 0 0 0 0 0 0 0 0 0 0 0 0 3 6